Simultaneous Nadir Overpasses (SNOs) Predictions

Prediction of SNOs between AQUA and NOAA-19 Satellite Orbit:

Table of predicted SNOs for the next 14.0 days since TLE Epoch: 11/24/2018
Index Date (AQUA) Time (AQUA) Lat,Lon (AQUA) SZA (AQUA ) Date (NOAA-19) Time (NOAA-19) Lat,Lon (NOAA-19) SZA (NOAA-19 ) Distance(km) Time Diff (sec)
1 11/24/2018 20:54:44 -80.64, 9.61 77.27 11/24/2018 20:54:16 -80.64, 9.65 77.26 0.78 28
2 11/24/2018 21:44:11 80.66, 177.04 102.78 11/24/2018 21:45:19 80.65, 177.07 102.74 1.56 68
3 11/27/2018 02:28:28 80.64, 106.18 103.17 11/27/2018 02:27:50 80.64, 106.30 103.18 2.15 38
4 11/27/2018 03:17:55 -80.65, -86.28 76.81 11/27/2018 03:18:47 -80.64, -86.41 76.82 2.68 52
5 11/29/2018 08:02:12 -80.63,-157.17 76.44 11/29/2018 08:01:18 -80.63,-157.34 76.41 3.22 54
6 11/29/2018 08:51:39 80.65, 10.27 103.61 11/29/2018 08:52:21 80.64, 10.36 103.58 1.87 42
7 12/01/2018 13:35:56 80.64, -60.64 103.95 12/01/2018 13:34:52 80.63, -60.47 103.95 3.23 64
8 12/01/2018 14:25:23 -80.65, 106.89 76.03 12/01/2018 14:25:48 -80.64, 106.93 76.05 1.24 25
9 12/03/2018 19:59:07 80.65,-156.61 104.32 12/03/2018 19:59:23 80.64,-156.46 104.29 3.26 16




NCC Satellite Simultaneous Nadir Overpasses (SNOs) Prediction Service
